Location: Clydes Pack Station
(37.0008°N, 119.0137°W)
Time: 12:11:08
(UTC+00:00)

Daily predictions for brighter satellites

Satellite Brightness Start Highest point End
(mag) Time Altitude Azimuth Time Altitude Azimuth Time Altitude Azimuth
CZ-2C R/B 3.9 12:02:59 10° NNW 12:06:11 26° WNW 12:07:44 20° WSW
ARIANE 5 R/B 4.1 12:02:45 10° NNW 12:06:17 19° WNW 12:08:34 14° W
MSX 4.3 12:01:45 10° N 12:07:11 44° WNW 12:11:54 14° SW
USA 267 4.0 12:01:11 10° ESE 12:07:31 56° NE 12:13:52 10° NW
Cosmos 1745 Rocket 4.3 12:05:32 10° NNW 12:11:24 44° W 12:17:11 10° SSW
CZ-4B R/B 2.3 12:09:25 10° SSE 12:12:33 50° ENE 12:15:39 10° N
Cosmos 1455 3.5 12:10:45 10° SSE 12:14:23 42° E 12:18:04 10° NNE
Landsat 5 3.9 12:11:54 10° SSW 12:15:31 35° W 12:19:16 10° NNW
Cosmos 1953 Rocket 4.4 12:12:40 10° NNW 12:16:39 32° W 12:20:35 10° SSW
Cosmos 1300 3.8 12:15:09 17° WSW 12:17:14 26° WNW 12:20:29 10° NNW
Lacrosse 5 rocket 2.7 12:13:19 10° SSW 12:17:30 39° SE 12:21:48 10° NE
SeaSat 1 2.6 12:17:56 10° NNE 12:22:48 60° WNW 12:27:37 10° SW
ADEOS Rocket 4.0 12:18:00 10° SSE 12:25:34 70° ENE 12:33:18 10° N
Cosmos 2058 3.3 12:23:51 10° N 12:28:02 69° E 12:32:12 10° SSE
ERS-2 3.1 12:25:24 10° SSW 12:28:31 27° W 12:31:41 10° NW
TSX-5 3.1 12:39:41 10° SSW 12:42:52 80° WNW 12:46:03 10° NNE
SAR-Lupe-4 3.7 12:41:34 10° S 12:45:02 50° W 12:48:32 10° NNW
COSMO-SKYMED 1 4.4 12:41:26 10° SE 12:45:25 37° ENE 12:49:25 10° N
